| time (UTC) | temp F | wind direction | speed MPH | gust MPH | rain 1hr in | rain 24hr in | rain mn in | humidity % | barometer mb |
| 20260506223037 | 58 | 26 | 4.0 | 10.0 | 0.10 | 0.14 | 0.14 | 84 | 1012.4 |
| 20260506221543 | 61 | 346 | 7.0 | 10.0 | 0.00 | 0.04 | 0.04 | 76 | 1012.8 |
| 20260506220042 | 61 | 360 | 7.0 | 11.0 | 0.00 | 0.04 | 0.04 | 75 | 1012.1 |
| 20260506214534 | 61 | 348 | 6.0 | 9.0 | 0.00 | 0.04 | 0.04 | 75 | 1012.4 |
| 20260506213041 | 61 | 321 | 7.0 | 12.0 | 0.00 | 0.04 | 0.04 | 75 | 1012.3 |
| 20260506211541 | 61 | 17 | 4.0 | 11.0 | 0.00 | 0.04 | 0.04 | 76 | 1012.5 |
| 20260506210042 | 60 | 360 | 6.0 | 10.0 | 0.00 | 0.04 | 0.04 | 75 | 1012.4 |
| 20260506204534 | 60 | 319 | 5.0 | 11.0 | 0.00 | 0.04 | 0.04 | 76 | 1012.6 |
| 20260506203033 | 60 | 347 | 4.0 | 8.0 | 0.00 | 0.04 | 0.04 | 78 | 1012.6 |
| 20260506201537 | 60 | 349 | 6.0 | 11.0 | 0.00 | 0.04 | 0.04 | 75 | 1012.8 |
| 20260506200033 | 60 | 344 | 3.0 | 10.0 | 0.00 | 0.04 | 0.04 | 81 | 1013.2 |
| 20260506194529 | 58 | 28 | 4.0 | 10.0 | 0.00 | 0.04 | 0.04 | 81 | 1013.4 |
| 20260506193042 | 57 | 304 | 6.0 | 12.0 | 0.00 | 0.04 | 0.04 | 80 | 1013.6 |
| 20260506191528 | 57 | 38 | 5.0 | 10.0 | 0.00 | 0.04 | 0.04 | 82 | 1013.6 |
| 20260506190028 | 55 | 35 | 3.0 | 7.0 | 0.00 | 0.04 | 0.04 | 84 | 1013.7 |
| 20260506184531 | 54 | 310 | 5.0 | 8.0 | 0.00 | 0.04 | 0.04 | 84 | 1014.1 |
| 20260506183027 | 54 | 348 | 4.0 | 10.0 | 0.00 | 0.04 | 0.04 | 84 | 1014.2 |
| 20260506181536 | 54 | 296 | 5.0 | 11.0 | 0.00 | 0.04 | 0.04 | 84 | 1013.6 |
| 20260506180026 | 54 | 340 | 7.0 | 16.0 | 0.00 | 0.04 | 0.04 | 85 | 1012.6 |
| 20260506174528 | 54 | 355 | 7.0 | 15.0 | 0.00 | 0.04 | 0.04 | 85 | 1012.3 |
| 20260506173047 | 53 | 342 | 6.0 | 14.0 | 0.00 | 0.04 | 0.04 | 86 | 1012.7 |
| 20260506171532 | 53 | 355 | 5.0 | 12.0 | 0.00 | 0.04 | 0.04 | 86 | 1013.4 |
| 20260506170023 | 53 | 38 | 5.0 | 11.0 | 0.00 | 0.04 | 0.04 | 86 | 1012.8 |
| 20260506164522 | 52 | 19 | 6.0 | 12.0 | 0.00 | 0.04 | 0.04 | 86 | 1013.3 |
| 20260506163028 | 52 | 325 | 7.0 | 13.0 | 0.00 | 0.04 | 0.04 | 86 | 1013.2 |
| 20260506161522 | 52 | 19 | 5.0 | 13.0 | 0.00 | 0.04 | 0.04 | 86 | 1013.0 |
| 20260506160022 | 52 | 355 | 6.0 | 14.0 | 0.00 | 0.04 | 0.04 | 86 | 1013.0 |
| 20260506154521 | 52 | 360 | 7.0 | 13.0 | 0.01 | 0.04 | 0.04 | 86 | 1012.7 |
| 20260506153024 | 52 | 19 | 4.0 | 13.0 | 0.04 | 0.04 | 0.04 | 85 | 1012.7 |
| 20260506151520 | 51 | 5 | 7.0 | 15.0 | 0.04 | 0.04 | 0.04 | 85 | 1012.6 |
| 20260506150019 | 51 | 333 | 6.0 | 9.0 | 0.04 | 0.04 | 0.04 | 86 | 1014.1 |
| 20260506144517 | 51 | 355 | 6.0 | 9.0 | 0.03 | 0.03 | 0.03 | 85 | 1014.0 |
| 20260506143023 | 52 | 327 | 6.0 | 12.0 | 0.00 | 0.00 | 0.00 | 85 | 1014.2 |
| 20260506141513 | 52 | 347 | 6.0 | 13.0 | 0.00 | 0.00 | 0.00 | 85 | 1012.8 |
| 20260506140017 | 52 | 350 | 9.0 | 15.0 | 0.00 | 0.00 | 0.00 | 84 | 1012.7 |
| 20260506134508 | 52 | 331 | 9.0 | 15.0 | 0.00 | 0.00 | 0.00 | 84 | 1012.8 |
| 20260506133005 | 52 | 57 | 8.0 | 14.0 | 0.00 | 0.00 | 0.00 | 83 | 1012.3 |
| 20260506131505 | 53 | 336 | 8.0 | 17.0 | 0.00 | 0.00 | 0.00 | 82 | 1011.9 |
| 20260506130121 | 53 | 347 | 8.0 | 14.0 | 0.00 | 0.00 | 0.00 | 81 | 1011.7 |
| 20260506124556 | 53 | 350 | 7.0 | 13.0 | 0.00 | 0.00 | 0.00 | 80 | 1011.3 |
| 20260506123055 | 54 | 336 | 8.0 | 15.0 | 0.00 | 0.00 | 0.00 | 80 | 1011.3 |
| 20260506121553 | 54 | 15 | 7.0 | 15.0 | 0.00 | 0.00 | 0.00 | 81 | 1011.0 |
| 20260506120050 | 54 | 28 | 7.0 | 12.0 | 0.00 | 0.00 | 0.00 | 80 | 1011.0 |
| 20260506114549 | 55 | 334 | 9.0 | 15.0 | 0.00 | 0.00 | 0.00 | 80 | 1010.8 |
| 20260506113044 | 55 | 321 | 8.0 | 14.0 | 0.00 | 0.00 | 0.00 | 80 | 1010.6 |
| 20260506111542 | 55 | 331 | 6.0 | 12.0 | 0.00 | 0.00 | 0.00 | 80 | 1010.4 |
| 20260506110044 | 55 | 327 | 8.0 | 14.0 | 0.00 | 0.00 | 0.00 | 80 | 1009.8 |
| 20260506104604 | 56 | 336 | 6.0 | 13.0 | 0.00 | 0.00 | 0.00 | 81 | 1009.8 |
| 20260506103040 | 56 | 323 | 8.0 | 12.0 | 0.00 | 0.00 | 0.00 | 80 | 1009.6 |
| 20260506101533 | 56 | 350 | 5.0 | 13.0 | 0.00 | 0.00 | 0.00 | 81 | 1009.2 |
| 20260506100039 | 56 | 347 | 6.0 | 10.0 | 0.00 | 0.00 | 0.00 | 80 | 1008.9 |
| 20260506094533 | 57 | 344 | 6.0 | 12.0 | 0.00 | 0.00 | 0.00 | 81 | 1008.8 |
| 20260506093025 | 57 | 341 | 6.0 | 9.0 | 0.00 | 0.00 | 0.00 | 80 | 1008.6 |
| 20260506091523 | 58 | 348 | 4.0 | 9.0 | 0.00 | 0.00 | 0.00 | 80 | 1008.6 |
| 20260506090020 | 58 | 331 | 7.0 | 11.0 | 0.00 | 0.00 | 0.00 | 81 | 1008.6 |
| 20260506084518 | 58 | 302 | 4.0 | 10.0 | 0.00 | 0.00 | 0.00 | 80 | 1008.5 |
| 20260506083033 | 59 | 342 | 4.0 | 10.0 | 0.00 | 0.00 | 0.00 | 80 | 1008.2 |
| 20260506081513 | 59 | 339 | 6.0 | 12.0 | 0.00 | 0.00 | 0.00 | 80 | 1008.2 |
| 20260506073009 | 60 | 38 | 5.0 | 10.0 | 0.00 | 0.00 | 0.00 | 81 | 1007.8 |
| 20260506071508 | 60 | 5 | 4.0 | 9.0 | 0.00 | 0.00 | 0.00 | 81 | 1008.0 |
| 20260506061502 | 61 | 5 | 4.0 | 9.0 | 0.00 | 0.00 | 0.00 | 81 | 1007.7 |
| 20260506044556 | 64 | 5 | 5.0 | 10.0 | 0.00 | 0.00 | 0.00 | 78 | 1007.5 |
| 20260506043052 | 65 | 18 | 6.0 | 11.0 | 0.00 | 0.00 | 0.00 | 78 | 1007.5 |
| 20260506041545 | 66 | 339 | 8.0 | 13.0 | 0.00 | 0.00 | 0.00 | 77 | 1007.6 |
| 20260506040047 | 66 | 332 | 5.0 | 13.0 | 0.00 | 0.00 | 0.00 | 76 | 1007.5 |
| 20260506034536 | 66 | 349 | 8.0 | 14.0 | 0.00 | 0.00 | 0.00 | 75 | 1007.2 |
| 20260506033032 | 67 | 340 | 7.0 | 12.0 | 0.00 | 0.00 | 0.00 | 74 | 1006.9 |
| 20260506031530 | 67 | 24 | 5.0 | 11.0 | 0.00 | 0.00 | 0.00 | 74 | 1006.4 |
| 20260506030028 | 68 | 350 | 6.0 | 13.0 | 0.00 | 0.00 | 0.00 | 73 | 1006.0 |
| 20260506024535 | 69 | 348 | 6.0 | 12.0 | 0.00 | 0.00 | 0.00 | 73 | 1005.9 |
| 20260506023024 | 70 | 343 | 7.0 | 14.0 | 0.00 | 0.00 | 0.00 | 72 | 1005.6 |
| 20260506021540 | 71 | 15 | 7.0 | 12.0 | 0.00 | 0.00 | 0.00 | 72 | 1005.4 |
| 20260506020021 | 72 | 332 | 6.0 | 12.0 | 0.00 | 0.00 | 0.00 | 71 | 1005.0 |
| 20260506014523 | 73 | 313 | 5.0 | 13.0 | 0.00 | 0.00 | 0.00 | 70 | 1004.6 |
| 20260506013017 | 73 | 340 | 4.0 | 9.0 | 0.00 | 0.00 | 0.00 | 70 | 1004.1 |
| 20260506011524 | 74 | 348 | 4.0 | 11.0 | 0.00 | 0.00 | 0.00 | 68 | 1003.9 |
| 20260506010016 | 74 | 322 | 5.0 | 12.0 | 0.00 | 0.00 | 0.00 | 66 | 1003.7 |
| 20260506004515 | 75 | 310 | 6.0 | 10.0 | 0.00 | 0.00 | 0.00 | 65 | 1003.5 |
| 20260506003015 | 75 | 360 | 3.0 | 10.0 | 0.00 | 0.00 | 0.00 | 64 | 1003.2 |
| 20260506001515 | 76 | 5 | 7.0 | 14.0 | 0.00 | 0.00 | 0.00 | 64 | 1003.3 |
| 20260506000014 | 77 | 355 | 6.0 | 15.0 | 0.00 | 0.00 | 0.00 | 63 | 1003.3 |
| 20260505234515 | 78 | 344 | 8.0 | 14.0 | 0.00 | 0.00 | 0.00 | 62 | 1003.0 |
| 20260505233012 | 80 | 355 | 8.0 | 15.0 | 0.00 | 0.00 | 0.00 | 61 | 1002.6 |
| 20260505231522 | 82 | 342 | 10.0 | 16.0 | 0.00 | 0.00 | 0.00 | 55 | 1002.4 |
| 20260505230012 | 84 | 333 | 8.0 | 15.0 | 0.00 | 0.00 | 0.00 | 50 | 1002.2 |
| 20260505224519 | 87 | 324 | 3.0 | 7.0 | 0.00 | 0.00 | 0.00 | 52 | 1002.0 |